This demonstration page uses our WeatherBlox Daily Observations layout. Learn more.

Left ArrowRight Arrow

41.86663, -103.66717

Hourly Observations for May 5, 2021

Temp ( °F °C ) Dew Point ( °F °C ) Humidity (%) Winds ( mph kmh ) Pressure ( in mb ) Visibility ( mi km ) Precip ( " mm )
12:53 am 00:53 Partly Cloudy 43 6.1 36 2.2 76 76 WNW 5 7 30.01 1016 10 16.0934 N/A
1:53 am 01:53 Mostly Cloudy 48 8.9 37 2.8 66 66 WNW 14 22 30 1016 10 16.0934 N/A
2:53 am 02:53 Clear 43 6.1 35 1.7 74 74 WNW 8 13 30.04 1017 10 16.0934 N/A
3:53 am 03:53 Clear 40 4.4 35 1.7 83 83 NW 7 11 30.05 1018 10 16.0934 N/A
4:53 am 04:53 Clear 37 2.8 34 1.1 89 89 NW 6 9 30.09 1019 10 16.0934 N/A
5:53 am 05:53 Sunny 33 0.6 30 -1.1 89 89 N 6 9 30.11 1020 10 16.0934 N/A
6:53 am 06:53 Sunny 40 4.4 35 1.7 83 83 NNW 6 9 30.12 1020 10 16.0934 N/A
7:53 am 07:53 Sunny 46 7.8 36 2.2 68 68 WNW 10 17 30.13 1020 10 16.0934 N/A
8:53 am 08:53 Sunny 51 10.6 37 2.8 59 59 VRB 7 11 30.14 1021 10 16.0934 N/A
9:53 am 09:53 Sunny 59 15 36 2.2 42 42 NW 15 24 30.14 1021 10 16.0934 N/A
10:53 am 10:53 Mostly Sunny 62 16.7 32 undefined 32 32 WNW 14 22 30.14 1021 10 16.0934 N/A
11:53 am 11:53 Mostly Cloudy 62 16.7 25 -3.9 24 24 NNW 10 17 30.14 1021 10 16.0934 N/A
12:53 pm 12:53 Mostly Cloudy 64 17.8 25 -3.9 23 23 NW 14 22 30.12 1020 10 16.0934 N/A
1:53 pm 13:53 Partly Cloudy 63 17.2 30 -1.1 29 29 NNW 18 30 30.12 1020 10 16.0934 N/A
2:53 pm 14:53 Cloudy 63 17.2 28 -2.2 27 27 WNW 16 26 30.14 1021 10 16.0934 N/A
3:18 pm 15:18 Mostly Cloudy 63 17.2 34 1.1 34 34 N 24 39 30.04 1017 10 16.0934 N/A
3:53 pm 15:53 Sunny 62 16.7 33 0.6 34 34 NW 16 26 30.16 1021 10 16.0934 N/A
4:53 pm 16:53 Cloudy 57 13.9 32 undefined 39 39 WSW 21 33 30.18 1022 10 16.0934 N/A
5:28 pm 17:28 Cloudy with Light Rain 50 10 41 5 71 71 W 9 15 30.18 1022 2 3.21868 0.02 0.508
5:36 pm 17:36 Mostly Cloudy with Light Rain 53 11.7 44 6.7 72 72 W 10 17 30.15 1021 10 16.0934 0.02 0.508
5:53 pm 17:53 Mostly Sunny 54 12.2 43 6.1 67 67 SSW 5 7 30.21 1023 10 16.0934 0.02 0.508
6:53 pm 18:53 Cloudy with Light Rain 51 10.6 40 4.4 66 66 N 13 20 30.22 1024 10 16.0934 0.001 0.001
7:53 pm 19:53 Sunny 48 8.9 40 4.4 74 74 N N/A 30.23 1024 10 16.0934 0.001 0.001
8:53 pm 20:53 Mostly Clear 44 6.7 38 3.3 79 79 NE 9 15 30.26 1025 10 16.0934 N/A
9:53 pm 21:53 Clear 43 6.1 37 2.8 80 80 NE 8 13 30.27 1025 10 16.0934 N/A
10:53 pm 22:53 Clear 42 5.6 35 1.7 76 76 ENE 3 6 30.29 1026 10 16.0934 N/A
11:53 pm 23:53 Clear 40 4.4 35 1.7 83 83 SSW 6 9 30.3 1026 10 16.0934 N/A

Powered by AerisWeather